Weather History for KFBG - March, 2013

Change the Weather History Date:

Sunday, March 10, 2013

  Actual Average Record
Temperature  
Mean Temperature 50 °F -  
Max Temperature 68 °F 60 °F 80 °F (1997)
Min Temperature 31 °F 39 °F 30 °F (2008)
Degree Days  
Heating Degree Days 16    
Moisture  
Dew Point 26 °F    
Average Humidity 48    
Maximum Humidity 98    
Minimum Humidity 15    
Precipitation  
Precipitation 0.00 in - - ()
Sea Level Pressure  
Sea Level Pressure 30.27 in    
Wind  
Wind Speed 3 mph (ESE)    
Max Wind Speed 9 mph    
Max Gust Speed -    
Visibility 10 miles    
Events      
Averages and records for this station are not official NWS values.
T = Trace of Precipitation, MM = Missing Value Source: NWS Daily Summary

Daily Weather History Graph

Daily Weather History Graph

Search for Another Location

Airport or City:

Trip Planner

Search our weather history database for the weather conditions in past years. The results will help you decide how hot, cold, wet, or windy it might be!

Date:

Astronomy

Mar. 10, 2013 Rise Set
Actual Time 7:32 AM EDT 7:19 PM EDT
Civil Twilight 7:07 AM EDT 7:44 PM EDT
Nautical Twilight 6:38 AM EDT 8:14 PM EDT
Astronomical Twilight 6:08 AM EDT 8:43 PM EDT
Moon 6:30 AM EDT (3/10) 6:25 PM EDT (3/10)
Length of Visible Light 12h 36m
Length of Day
11h 46m
Waning Crescent, 2% of the Moon is Illuminated
Mar 10
Waning Crescent
Mar 11
New
Mar 19
First Quarter
Mar 27
Full
Apr 3
Last Quarter

Hourly Weather History & Observations

Time (EDT) Temp. Dew Point Humidity Pressure Visibility Wind Dir Wind Speed Gust Speed Precip Events Conditions
12:58 AM 36.3 °F 32.7 °F 87% 30.30 in 10.0 mi Calm Calm - N/A   Clear
1:58 AM 35.1 °F 32.7 °F 91% 30.29 in 10.0 mi NNW 1.2 mph - N/A   Clear
3:58 AM 34.7 °F 32.5 °F 92% 30.27 in 10.0 mi North 1.2 mph - N/A   Clear
4:58 AM 34.2 °F 31.6 °F 90% 30.27 in 10.0 mi Calm Calm - N/A   Clear
5:58 AM 33.4 °F 31.1 °F 91% 30.29 in 10.0 mi Calm Calm - N/A   Clear
6:58 AM 32.4 °F 31.3 °F 96% 30.30 in 10.0 mi NW 1.2 mph - N/A   Clear
7:58 AM 31.8 °F 31.3 °F 98% 30.30 in 10.0 mi NE 1.2 mph - N/A   Clear
8:58 AM 41.0 °F 35.1 °F 79% 30.31 in 10.0 mi ENE 2.3 mph - N/A   Clear
9:58 AM 51.3 °F 27.3 °F 40% 30.32 in 10.0 mi SSE 5.8 mph - N/A   Clear
10:58 AM 56.1 °F 24.6 °F 30% 30.33 in 10.0 mi South 4.6 mph - N/A   Clear
11:58 AM 59.9 °F 26.8 °F 28% 30.32 in 10.0 mi Variable 4.6 mph - N/A   Clear
12:58 PM 63.3 °F 26.4 °F 25% 30.30 in 10.0 mi Variable 2.3 mph - N/A   Clear
1:58 PM 64.9 °F 23.4 °F 21% 30.27 in 10.0 mi East 6.9 mph - N/A   Clear
2:58 PM 66.7 °F 21.9 °F 18% 30.24 in 10.0 mi East 9.2 mph - N/A   Clear
3:58 PM 67.8 °F 17.6 °F 15% 30.23 in 10.0 mi SSE 8.1 mph - N/A   Clear
4:58 PM 68.5 °F 18.9 °F 15% 30.22 in 10.0 mi SE 9.2 mph - N/A   Clear
5:58 PM 67.6 °F 18.1 °F 15% 30.21 in 10.0 mi ESE 8.1 mph - N/A   Clear
6:58 PM 65.3 °F 18.3 °F 16% 30.22 in 10.0 mi ESE 6.9 mph - N/A   Clear
7:58 PM 60.1 °F 21.7 °F 23% 30.23 in 10.0 mi ESE 2.3 mph - N/A   Clear
8:58 PM 57.0 °F 21.9 °F 26% 30.23 in 10.0 mi SSE 5.8 mph - N/A   Clear
9:58 PM 55.6 °F 20.8 °F 26% 30.25 in 10.0 mi SE 4.6 mph - N/A   Clear
10:58 PM 53.6 °F 17.8 °F 24% 30.27 in 10.0 mi South 2.3 mph - N/A   Clear
11:58 PM 47.8 °F 29.1 °F 48% 30.26 in 10.0 mi South 2.3 mph - N/A   Clear
12:58 AM 44.8 °F 27.7 °F 51% 30.24 in 10.0 mi Calm Calm - N/A   Clear